Torna al catalogo

DELTA 4 R/B

AttivoMEO
NORAD 32288·ROCKET BODY·🇺🇸 United States

Lanciato Nov 11, 2007 da Cape Canaveral Space Force Station

Loading…

Prossimi Passaggi (prossime 24 ore)

TLE

AggiornatoSource: Space-Track

Epoca: Sep 13, 2026, 07:36 UTC

1 32288U 07054B   26256.31668859 -.00000197  00000-0  00000+0 0  9993
2 32288  11.7118  50.7253 0245318 143.4596 218.3350  0.95871030 26082

Traccia DELTA 4 R/B in tempo reale con AllMySat

Download on the App Store